Radiation Dose at Monitoring Post of Fukushima Daini Nuclear Power Station
Date,Time,MP-1(microSv/h),MP-2(microSv/h),MP-3(microSv/h),MP-4(microSv/h),MP-5(microSv/h),MP-6(microSv/h),MP-7(microSv/h),Wind Direction,Wind Velocity(m/s),Rain
2015/05/05,00:00,0.551,0.336,0.594,0.554,0.481,0.257,0.233,west-northwest,9.2,No
2015/05/05,00:10,0.554,0.340,0.597,0.546,0.481,0.257,0.234,west-northwest,11.8,No
2015/05/05,00:20,0.553,0.338,0.597,0.551,0.479,0.259,0.233,west,14.6,No
2015/05/05,00:30,0.551,0.339,0.593,0.551,0.484,0.256,0.232,west,10.5,No
2015/05/05,00:40,0.554,0.340,0.597,0.549,0.478,0.258,0.234,west-northwest,11.5,No
2015/05/05,00:50,0.550,0.338,0.592,0.556,0.486,0.257,0.232,west,11.2,No
2015/05/05,01:00,0.557,0.341,0.600,0.549,0.479,0.257,0.233,west,10.9,No
2015/05/05,01:10,0.554,0.338,0.597,0.554,0.483,0.258,0.233,west-northwest,7.8,No
2015/05/05,01:20,0.554,0.340,0.595,0.550,0.483,0.257,0.233,north-northwest,5.6,No
2015/05/05,01:30,0.557,0.338,0.600,0.555,0.481,0.258,0.232,north-northwest,5.2,No
2015/05/05,01:40,0.552,0.341,0.594,0.553,0.485,0.258,0.233,north,6.9,No
2015/05/05,01:50,0.557,0.339,0.598,0.551,0.479,0.259,0.231,north-northwest,9.6,No
2015/05/05,02:00,0.552,0.339,0.595,0.555,0.486,0.257,0.233,north-northwest,5.9,No
2015/05/05,02:10,0.557,0.341,0.597,0.549,0.480,0.257,0.231,north-northwest,6.8,No
2015/05/05,02:20,0.555,0.337,0.596,0.557,0.484,0.258,0.234,northwest,6.5,No
2015/05/05,02:30,0.551,0.343,0.596,0.550,0.481,0.258,0.233,north-northwest,5.5,No
2015/05/05,02:40,0.557,0.338,0.599,0.555,0.482,0.258,0.232,north-northwest,6.3,Yes
2015/05/05,02:50,0.551,0.341,0.594,0.553,0.483,0.258,0.234,north-northwest,5.8,Yes
2015/05/05,03:00,0.558,0.341,0.601,0.552,0.481,0.258,0.232,north-northwest,5.8,No
2015/05/05,03:10,0.552,0.339,0.595,0.555,0.485,0.258,0.233,northwest,6.2,Yes
2015/05/05,03:20,0.557,0.342,0.599,0.553,0.480,0.258,0.234,north-northwest,4.1,Yes
2015/05/05,03:30,0.554,0.340,0.595,0.555,0.485,0.257,0.233,north-northwest,5.8,No
2015/05/05,03:40,0.557,0.342,0.601,0.550,0.481,0.259,0.235,north-northwest,6.7,No
2015/05/05,03:50,0.556,0.339,0.595,0.554,0.486,0.258,0.234,north-northwest,7.0,Yes
2015/05/05,04:00,0.553,0.342,0.600,0.552,0.481,0.259,0.233,northwest,4.5,Yes
2015/05/05,04:10,0.557,0.340,0.597,0.558,0.484,0.257,0.235,north,4.2,No
2015/05/05,04:20,0.555,0.341,0.600,0.552,0.483,0.259,0.234,north-northwest,5.3,No
2015/05/05,04:30,0.558,0.340,0.596,0.556,0.485,0.259,0.233,north,7.0,No
2015/05/05,04:40,0.553,0.340,0.599,0.550,0.481,0.258,0.233,north,8.0,No
2015/05/05,04:50,0.557,0.339,0.597,0.556,0.485,0.257,0.232,north,8.9,Yes
2015/05/05,05:00,0.554,0.341,0.597,0.550,0.481,0.259,0.234,north,5.7,Yes
2015/05/05,05:10,0.558,0.341,0.599,0.555,0.485,0.259,0.234,north-northwest,5.1,Yes
2015/05/05,05:20,0.554,0.339,0.598,0.549,0.484,0.260,0.235,north-northwest,5.8,Yes
2015/05/05,05:30,0.558,0.340,0.596,0.556,0.483,0.258,0.233,north,6.3,Yes
2015/05/05,05:40,0.553,0.340,0.600,0.553,0.484,0.260,0.235,north,6.8,Yes
2015/05/05,05:50,0.556,0.343,0.595,0.554,0.483,0.258,0.233,north-northwest,5.9,Yes
2015/05/05,06:00,0.558,0.341,0.602,0.554,0.488,0.262,0.237,north-northwest,6.4,Yes
2015/05/05,06:10,0.560,0.346,0.599,0.558,0.484,0.262,0.237,north-northwest,6.4,Yes
2015/05/05,06:20,0.561,0.346,0.603,0.557,0.487,0.264,0.237,north-northwest,6.2,Yes
2015/05/05,06:30,0.558,0.345,0.600,0.555,0.485,0.262,0.238,north-northwest,5.2,Yes
2015/05/05,06:40,0.561,0.345,0.598,0.558,0.485,0.263,0.237,north-northwest,6.4,Yes
2015/05/05,06:50,0.555,0.341,0.601,0.553,0.482,0.261,0.235,north-northwest,6.9,Yes
2015/05/05,07:00,0.560,0.343,0.596,0.552,0.480,0.261,0.235,northwest,7.1,No
2015/05/05,07:10,0.556,0.340,0.601,0.550,0.482,0.260,0.235,north-northwest,7.8,No
2015/05/05,07:20,0.554,0.341,0.592,0.550,0.477,0.259,0.235,north-northwest,6.7,No
2015/05/05,07:30,0.556,0.340,0.597,0.552,0.479,0.258,0.234,north-northwest,7.0,No
2015/05/05,07:40,0.551,0.339,0.592,0.548,0.481,0.258,0.233,north-northwest,5.7,No
2015/05/05,07:50,0.554,0.339,0.594,0.550,0.478,0.258,0.234,north-northwest,5.3,No
2015/05/05,08:00,0.549,0.337,0.593,0.546,0.479,0.257,0.232,north-northwest,5.5,No
2015/05/05,08:10,0.555,0.338,0.591,0.550,0.476,0.258,0.233,north-northwest,5.8,No
2015/05/05,08:20,0.551,0.337,0.593,0.547,0.480,0.258,0.232,north-northwest,5.1,No
2015/05/05,08:30,0.557,0.337,0.592,0.549,0.477,0.257,0.231,north-northwest,4.1,No
2015/05/05,08:40,0.551,0.338,0.594,0.546,0.480,0.256,0.231,north-northwest,4.1,No
2015/05/05,08:50,0.555,0.337,0.592,0.550,0.476,0.257,0.232,north-northwest,3.6,No
2015/05/05,09:00,0.550,0.337,0.594,0.545,0.479,0.258,0.231,north,2.3,No
2015/05/05,09:10,0.555,0.335,0.592,0.553,0.478,0.257,0.233,north,3.9,No
2015/05/05,09:20,0.552,0.338,0.591,0.545,0.478,0.256,0.231,north-northeast,5.8,No
2015/05/05,09:30,0.556,0.336,0.593,0.550,0.480,0.257,0.233,north-northeast,8.1,No
2015/05/05,09:40,0.550,0.336,0.589,0.545,0.479,0.257,0.231,northeast,6.1,No
2015/05/05,09:50,0.554,0.337,0.595,0.550,0.481,0.256,0.232,north-northeast,5.0,No
2015/05/05,10:00,0.549,0.339,0.592,0.547,0.476,0.257,0.231,northeast,5.2,No
2015/05/05,10:10,0.555,0.336,0.595,0.550,0.482,0.256,0.234,north-northeast,4.5,No
2015/05/05,10:20,0.552,0.338,0.589,0.548,0.476,0.258,0.231,northeast,3.6,No
2015/05/05,10:30,0.555,0.336,0.596,0.549,0.483,0.257,0.233,northeast,2.4,No
2015/05/05,10:40,0.549,0.338,0.589,0.548,0.476,0.258,0.230,northeast,3.9,No
2015/05/05,10:50,0.554,0.335,0.595,0.547,0.480,0.256,0.232,north-northeast,3.2,No
2015/05/05,11:00,0.552,0.338,0.590,0.551,0.478,0.259,0.231,north-northeast,2.7,No
2015/05/05,11:10,0.554,0.336,0.594,0.546,0.479,0.257,0.232,north-northeast,2.8,No
2015/05/05,11:20,0.552,0.337,0.594,0.553,0.481,0.256,0.232,northeast,1.6,No
2015/05/05,11:30,0.552,0.336,0.590,0.544,0.475,0.256,0.234,northeast,2.7,No
2015/05/05,11:40,0.553,0.337,0.596,0.552,0.481,0.256,0.232,north-northeast,2.8,No
2015/05/05,11:50,0.550,0.338,0.588,0.547,0.478,0.257,0.234,northeast,3.9,No
2015/05/05,12:00,0.555,0.334,0.596,0.546,0.480,0.255,0.233,north-northeast,2.2,No
2015/05/05,12:10,0.550,0.338,0.591,0.553,0.482,0.257,0.232,east-northeast,2.1,No
2015/05/05,12:20,0.555,0.338,0.589,0.546,0.476,0.256,0.233,east-southeast,1.8,No
2015/05/05,12:30,0.553,0.338,0.596,0.553,0.479,0.255,0.232,east-southeast,1.3,No
2015/05/05,12:40,0.555,0.338,0.592,0.550,0.482,0.256,0.233,east,2.1,No
2015/05/05,12:50,0.553,0.335,0.588,0.544,0.476,0.256,0.231,east,2.0,No
2015/05/05,13:00,0.551,0.338,0.594,0.552,0.480,0.257,0.231,east,2.2,No
2015/05/05,13:10,0.556,0.337,0.595,0.549,0.483,0.256,0.232,east-southeast,2.4,No
2015/05/05,13:20,0.551,0.337,0.588,0.546,0.477,0.256,0.231,southeast,1.8,No
2015/05/05,13:30,0.557,0.339,0.596,0.552,0.482,0.257,0.233,east-southeast,2.2,No
2015/05/05,13:40,0.551,0.337,0.599,0.549,0.484,0.256,0.232,east-southeast,3.0,No
2015/05/05,13:50,0.555,0.338,0.590,0.547,0.477,0.256,0.232,east,3.3,No
2015/05/05,14:00,0.556,0.339,0.591,0.553,0.478,0.258,0.233,east-southeast,3.1,No
2015/05/05,14:10,0.549,0.335,0.597,0.549,0.484,0.256,0.233,east-southeast,3.1,No
2015/05/05,14:20,0.555,0.340,0.591,0.548,0.479,0.257,0.230,southeast,3.2,No
2015/05/05,14:30,0.554,0.338,0.589,0.555,0.475,0.258,0.234,southeast,3.3,No
2015/05/05,14:40,0.549,0.336,0.597,0.550,0.483,0.257,0.233,southeast,3.6,No
2015/05/05,14:50,0.556,0.338,0.596,0.547,0.482,0.258,0.232,southeast,3.5,No
2015/05/05,15:00,0.554,0.338,0.590,0.554,0.478,0.257,0.233,southeast,3.8,No
2015/05/05,15:10,0.556,0.336,0.591,0.550,0.474,0.257,0.233,south-southeast,3.6,No
2015/05/05,15:20,0.556,0.340,0.601,0.556,0.485,0.258,0.233,southeast,3.8,No
2015/05/05,15:30,0.552,0.338,0.595,0.551,0.483,0.257,0.233,southeast,3.8,No
2015/05/05,15:40,0.557,0.338,0.594,0.556,0.481,0.257,0.233,south-southeast,4.1,No
2015/05/05,15:50,0.551,0.340,0.600,0.552,0.476,0.258,0.231,south-southeast,3.2,No
2015/05/05,16:00,0.557,0.338,0.597,0.555,0.484,0.258,0.233,south-southeast,3.1,No
2015/05/05,16:10,0.556,0.341,0.602,0.552,0.482,0.257,0.232,south-southeast,3.3,No
2015/05/05,16:20,0.551,0.339,0.596,0.553,0.478,0.258,0.234,south-southeast,3.5,No
2015/05/05,16:30,0.557,0.341,0.602,0.551,0.484,0.257,0.232,south-southeast,3.3,No
2015/05/05,16:40,0.551,0.339,0.595,0.554,0.485,0.256,0.233,south-southeast,2.7,No
2015/05/05,16:50,0.558,0.340,0.602,0.553,0.480,0.257,0.233,south-southeast,2.6,No
2015/05/05,17:00,0.552,0.338,0.596,0.553,0.479,0.257,0.233,south-southeast,1.9,No
2015/05/05,17:10,0.554,0.340,0.600,0.551,0.485,0.258,0.234,south-southeast,1.8,No
2015/05/05,17:20,0.555,0.339,0.597,0.557,0.482,0.256,0.233,south,3.3,No
2015/05/05,17:30,0.553,0.339,0.601,0.551,0.482,0.258,0.234,south,3.1,No
2015/05/05,17:40,0.556,0.338,0.594,0.553,0.484,0.256,0.234,south,3.7,No
2015/05/05,17:50,0.553,0.338,0.600,0.549,0.485,0.257,0.233,south,4.2,No
2015/05/05,18:00,0.558,0.340,0.596,0.556,0.485,0.257,0.234,south,4.4,No
2015/05/05,18:10,0.554,0.339,0.599,0.552,0.484,0.258,0.233,south,4.1,No
2015/05/05,18:20,0.557,0.341,0.594,0.556,0.485,0.258,0.234,south,3.9,No
2015/05/05,18:30,0.557,0.339,0.600,0.550,0.484,0.259,0.233,south-southwest,4.5,No
2015/05/05,18:40,0.553,0.340,0.596,0.553,0.482,0.258,0.233,south-southwest,5.0,No
2015/05/05,18:50,0.556,0.339,0.601,0.554,0.485,0.258,0.233,south-southwest,5.6,No
2015/05/05,19:00,0.553,0.338,0.596,0.552,0.482,0.258,0.234,south-southwest,5.9,No
2015/05/05,19:10,0.556,0.340,0.598,0.555,0.485,0.258,0.235,south,5.4,No
2015/05/05,19:20,0.555,0.339,0.597,0.551,0.481,0.258,0.235,south-southwest,6.4,No
2015/05/05,19:30,0.559,0.339,0.594,0.555,0.483,0.257,0.233,south-southwest,6.4,No
2015/05/05,19:40,0.555,0.340,0.600,0.553,0.485,0.258,0.233,south-southwest,6.4,No
2015/05/05,19:50,0.555,0.338,0.595,0.552,0.480,0.258,0.233,south-southwest,6.6,No
2015/05/05,20:00,0.556,0.340,0.600,0.555,0.483,0.259,0.234,south-southwest,7.5,No
2015/05/05,20:10,0.555,0.339,0.597,0.552,0.480,0.258,0.233,south-southwest,6.7,No
2015/05/05,20:20,0.560,0.338,0.595,0.555,0.480,0.257,0.234,south-southwest,6.4,No
2015/05/05,20:30,0.555,0.339,0.599,0.552,0.481,0.259,0.234,south-southwest,6.6,No
2015/05/05,20:40,0.557,0.338,0.595,0.550,0.480,0.258,0.234,south-southwest,7.7,No
2015/05/05,20:50,0.555,0.339,0.598,0.556,0.482,0.258,0.233,south-southwest,8.1,No
2015/05/05,21:00,0.554,0.340,0.597,0.553,0.481,0.259,0.234,south-southwest,8.1,No
2015/05/05,21:10,0.558,0.339,0.596,0.553,0.481,0.258,0.234,south-southwest,8.3,No
2015/05/05,21:20,0.553,0.338,0.599,0.554,0.484,0.258,0.234,south-southwest,7.9,No
2015/05/05,21:30,0.556,0.339,0.597,0.552,0.480,0.258,0.235,south-southwest,8.8,No
2015/05/05,21:40,0.555,0.339,0.598,0.556,0.481,0.257,0.235,south-southwest,8.3,No
2015/05/05,21:50,0.553,0.339,0.597,0.552,0.479,0.258,0.235,south-southwest,7.5,No
2015/05/05,22:00,0.557,0.339,0.594,0.551,0.482,0.258,0.233,south-southwest,7.2,No
2015/05/05,22:10,0.554,0.339,0.599,0.556,0.481,0.258,0.233,south-southwest,7.4,No
2015/05/05,22:20,0.557,0.339,0.598,0.552,0.481,0.260,0.233,south-southwest,7.7,No
2015/05/05,22:30,0.557,0.340,0.597,0.553,0.481,0.259,0.232,south-southwest,6.7,No
2015/05/05,22:40,0.555,0.339,0.601,0.554,0.481,0.258,0.235,south-southwest,6.9,No
2015/05/05,22:50,0.556,0.339,0.596,0.551,0.480,0.257,0.234,south-southwest,6.4,No
2015/05/05,23:00,0.556,0.341,0.599,0.554,0.483,0.258,0.235,south-southwest,7.1,No
2015/05/05,23:10,0.556,0.340,0.596,0.555,0.481,0.260,0.233,south-southwest,7.7,No
2015/05/05,23:20,0.557,0.339,0.597,0.554,0.479,0.259,0.233,south-southwest,7.3,No
2015/05/05,23:30,0.554,0.339,0.600,0.553,0.481,0.259,0.234,south-southwest,7.1,No
2015/05/05,23:40,0.558,0.339,0.599,0.554,0.479,0.258,0.235,south-southwest,7.2,No
2015/05/05,23:50,0.556,0.338,0.597,0.552,0.480,0.258,0.234,south-southwest,8.0,No
